Location: *
(51.5000°N, 0.1100°W)
Time: 01:44:31
(UTC+00:00)

MSX - Pass Details

Date: 13 August 2024
Orbit: 895 x 904 km, 99.0° (Epoch: 09 September)

Event Time Altitude Azimuth Distance (km) Brightness Sun altitude
Rises 02:09:13 0° 15° (NNE) 3,545 8.3 -18.7°
Reaches altitude 10° 02:11:38 10° 15° (NNE) 2,599 7.4 -18.5°
Maximum altitude 02:17:27 87° 288° (WNW) 914 3.8 -18.0°
Enters shadow 02:20:40 28° 200° (SSW) 1,627 4.6 -17.7°
